CW2099 Weather Reports


Display with metric or nautical units.
time (UTC)temp
F
wind
direction
speed
MPH
gust
MPH
rain 1hr
in
rain 24hr
in
rain mn
in
humidity
%
barometer
mb
20200607094042 47 295 4.0 9.0 0.00 0.00 0.00 65 1019.5
20200607093612 47 288 4.0 9.0 0.00 0.00 0.00 65 1019.3
20200607093103 47 308 4.0 7.0 0.00 0.00 0.00 63 1019.1
20200607092544 47 303 1.0 5.0 0.00 0.00 0.00 65 1019.1
20200607092036 47 301 1.0 10.0 0.00 0.00 0.00 66 1019.0
20200607091635 47 298 2.0 10.0 0.00 0.00 0.00 64 1018.9
20200607091036 47 291 3.0 9.0 0.00 0.00 0.00 65 1018.9
20200607090538 47 285 5.0 11.0 0.00 0.00 0.00 63 1018.8
20200607090059 47 292 6.0 11.0 0.00 0.00 0.00 63 1018.8
20200607085532 47 284 7.0 11.0 0.00 0.00 0.00 64 1019.0
20200607085031 47 297 5.0 9.0 0.00 0.00 0.00 64 1019.1
20200607084645 48 304 3.0 8.0 0.00 0.00 0.00 63 1019.2
20200607084031 48 296 2.0 7.0 0.00 0.00 0.00 65 1019.2
20200607083530 47 291 2.0 7.0 0.00 0.00 0.00 65 1019.4
20200607083058 47 282 4.0 7.0 0.00 0.00 0.00 65 1019.6
20200607082030 48 284 4.0 8.0 0.00 0.00 0.00 64 1019.4
20200607081547 48 283 4.0 9.0 0.00 0.00 0.00 64 1019.2
20200607081029 48 267 5.0 9.0 0.00 0.00 0.00 65 1019.2
20200607080528 48 296 5.0 9.0 0.00 0.00 0.00 65 1019.3
20200607080134 48 283 5.0 9.0 0.00 0.00 0.00 63 1019.3
20200607075533 48 281 5.0 9.0 0.00 0.00 0.00 64 1019.4
20200607075031 48 285 3.0 11.0 0.00 0.00 0.00 61 1019.3
20200607074605 48 296 6.0 11.0 0.00 0.00 0.00 61 1019.3
20200607074036 48 283 4.0 9.0 0.00 0.00 0.00 62 1019.4
20200607073525 48 288 4.0 9.0 0.00 0.00 0.00 62 1019.4
20200607073029 49 297 5.0 9.0 0.00 0.00 0.00 62 1019.3
20200607072525 49 294 4.0 8.0 0.00 0.00 0.00 65 1019.4
20200607072025 49 279 4.0 8.0 0.00 0.00 0.00 64 1019.4
20200607071529 49 282 4.0 8.0 0.00 0.00 0.00 64 1019.6
20200607071027 49 286 2.0 5.0 0.00 0.00 0.00 63 1019.6
20200607070519 49 287 3.0 5.0 0.00 0.00 0.00 62 1019.6
20200607070044 49 288 3.0 7.0 0.00 0.00 0.00 62 1019.7
20200607065517 49 288 5.0 7.0 0.00 0.00 0.00 63 1019.7
20200607065023 49 281 3.0 7.0 0.00 0.00 0.00 61 1019.9
20200607064514 49 287 3.0 7.0 0.00 0.00 0.00 61 1020.0
20200607064018 50 281 4.0 8.0 0.00 0.00 0.00 63 1020.0
20200607063511 50 293 4.0 8.0 0.00 0.00 0.00 64 1020.2
20200607063014 50 269 3.0 5.0 0.00 0.00 0.00 63 1020.5
20200607062509 50 275 3.0 7.0 0.00 0.00 0.00 64 1020.5
20200607062014 50 292 2.0 7.0 0.00 0.00 0.00 63 1020.5
20200607061544 50 286 1.0 4.0 0.00 0.00 0.00 64 1020.7
20200607061006 50 286 1.0 5.0 0.00 0.00 0.00 65 1020.6
20200607060510 50 271 2.0 5.0 0.00 0.00 0.00 65 1020.5
20200607060035 51 288 2.0 6.0 0.00 0.00 0.00 65 1020.4
20200607055507 51 284 2.0 7.0 0.00 0.00 0.00 65 1020.4
20200607055007 51 280 2.0 8.0 0.00 0.00 0.00 65 1020.4
20200607054502 51 297 4.0 7.0 0.00 0.00 0.00 64 1020.3
20200607053501 51 303 3.0 7.0 0.00 0.00 0.00 65 1019.9
20200607053250 51 282 3.0 7.0 0.00 0.00 0.00 64 1019.9
20200607052604 51 280 3.0 8.0 0.00 0.00 0.00 66 1019.8
20200607052059 51 282 5.0 10.0 0.00 0.00 0.00 65 1019.8
20200607051627 51 293 5.0 10.0 0.00 0.00 0.00 65 1019.6
20200607051107 51 303 4.0 11.0 0.00 0.00 0.00 66 1019.4
20200607050607 52 293 7.0 13.0 0.00 0.00 0.00 68 1019.0
20200607050259 52 287 8.0 12.0 0.00 0.00 0.00 70 1019.2
20200607045604 52 294 7.0 11.0 0.00 0.00 0.00 70 1019.1
20200607045056 53 269 7.0 11.0 0.00 0.00 0.00 69 1019.1
20200607044931 53 277 7.0 9.0 0.00 0.00 0.00 68 1019.2
20200607044054 53 285 6.0 10.0 0.00 0.00 0.00 67 1019.0
20200607042559 54 300 5.0 8.0 0.00 0.00 0.00 68 1019.4
20200607042057 54 281 6.0 9.0 0.00 0.00 0.00 67 1019.5
20200607041635 54 283 5.0 9.0 0.00 0.00 0.00 68 1019.5
20200607041059 55 275 6.0 10.0 0.00 0.00 0.00 67 1019.5
20200607040555 55 280 8.0 10.0 0.00 0.00 0.00 67 1019.4
20200607040204 55 275 4.0 7.0 0.00 0.00 0.00 68 1019.3
20200607035601 55 277 2.0 5.0 0.00 0.00 0.00 68 1019.4
20200607035110 56 287 3.0 5.0 0.00 0.00 0.00 67 1019.4
20200607034643 56 283 2.0 4.0 0.00 0.00 0.00 66 1019.5
20200607034052 56 273 2.0 4.0 0.00 0.00 0.00 66 1019.5
20200607033136 56 273 2.0 3.0 0.00 0.00 0.00 67 1019.5
20200607032550 56 273 1.0 4.0 0.00 0.00 0.00 66 1019.5
20200607032128 56 273 2.0 4.0 0.00 0.00 0.00 65 1019.6
20200607031742 57 273 1.0 4.0 0.00 0.00 0.00 64 1019.7
20200607031049 57 273 2.0 4.0 0.00 0.00 0.00 64 1019.8
20200607030549 57 275 1.0 5.0 0.00 0.00 0.00 63 1019.8
20200607030233 57 281 3.0 5.0 0.00 0.00 0.00 63 1019.8
20200607025548 57 289 2.0 4.0 0.00 0.00 0.00 63 1019.8
20200607025051 58 288 2.0 4.0 0.00 0.00 0.00 63 1019.9
20200607024656 58 295 2.0 4.0 0.00 0.00 0.00 64 1019.6
20200607024052 58 281 2.0 4.0 0.00 0.00 0.00 62 1019.7
20200607023056 58 272 2.0 4.0 0.00 0.00 0.00 62 1019.5
20200607022605 59 281 2.0 4.0 0.00 0.00 0.00 62 1019.4
20200607022106 59 281 2.0 4.0 0.00 0.00 0.00 60 1019.5
20200607021617 59 286 2.0 4.0 0.00 0.00 0.00 60 1019.4
20200607021044 59 281 2.0 4.0 0.00 0.00 0.00 60 1019.4
20200607020543 59 277 2.0 4.0 0.00 0.00 0.00 60 1019.3
20200607020114 59 278 0.0 3.0 0.00 0.00 0.00 59 1019.1
20200607015120 60 276 2.0 4.0 0.00 0.00 0.00 60 1019.0
20200607014558 60 277 3.0 6.0 0.00 0.00 0.00 59 1018.8
20200607014055 60 288 3.0 4.0 0.00 0.00 0.00 56 1018.9
20200607013118 61 276 2.0 5.0 0.00 0.00 0.00 56 1019.0
20200607012549 61 286 3.0 6.0 0.00 0.00 0.00 56 1018.8
20200607012048 61 291 3.0 6.0 0.00 0.00 0.00 55 1018.7
20200607011643 62 286 3.0 7.0 0.00 0.00 0.00 55 1018.5
20200607011047 62 268 5.0 7.0 0.00 0.00 0.00 55 1018.5
20200607010548 62 272 3.0 6.0 0.00 0.00 0.00 53 1018.7
20200607010207 62 280 2.0 6.0 0.00 0.00 0.00 53 1018.9
20200607005548 63 286 3.0 6.0 0.00 0.00 0.00 54 1018.9
20200607005048 63 281 3.0 6.0 0.00 0.00 0.00 52 1018.8
20200607004629 63 274 3.0 6.0 0.00 0.00 0.00 52 1018.8
20200607004047 63 273 2.0 4.0 0.00 0.00 0.00 52 1018.9
20200607003140 63 275 2.0 7.0 0.00 0.00 0.00 53 1018.9
20200607002541 63 269 3.0 8.0 0.00 0.00 0.00 52 1018.5
20200607002041 63 281 3.0 8.0 0.00 0.00 0.00 51 1018.3
20200607001557 64 271 4.0 7.0 0.00 0.00 0.00 51 1018.2
20200607001046 64 277 4.0 7.0 0.00 0.00 0.00 50 1018.0
20200607000548 64 252 4.0 7.0 0.00 0.00 0.00 52 1018.2
20200607000100 64 271 4.0 9.0 0.00 0.00 0.00 52 1018.1
20200606235605 64 271 5.0 9.0 0.00 0.00 0.00 51 1018.0
20200606235039 64 271 4.0 7.0 0.00 0.00 0.00 50 1018.2
20200606234607 64 275 1.0 4.0 0.00 0.00 0.00 47 1018.3
20200606234045 65 275 2.0 4.0 0.00 0.00 0.00 46 1018.4
20200606233109 65 272 1.0 4.0 0.00 0.00 0.00 47 1018.5
20200606232539 65 272 2.0 4.0 0.00 0.00 0.00 46 1018.4
20200606232039 65 271 3.0 4.0 0.00 0.00 0.00 50 1018.5
20200606231607 65 280 2.0 4.0 0.00 0.00 0.00 48 1018.5
20200606231038 65 271 1.0 3.0 0.00 0.00 0.00 45 1018.5
20200606230541 65 271 1.0 3.0 0.00 0.00 0.00 47 1018.4
20200606230213 65 248 1.0 3.0 0.00 0.00 0.00 44 1018.4
20200606225541 65 248 0.0 7.0 0.00 0.00 0.00 48 1018.5
20200606225038 65 245 1.0 7.0 0.00 0.00 0.00 44 1018.2
20200606224557 65 288 2.0 6.0 0.00 0.00 0.00 43 1018.2
20200606224042 65 271 2.0 7.0 0.00 0.00 0.00 46 1018.2
20200606223113 65 263 4.0 7.0 0.00 0.00 0.00 46 1018.2
20200606222538 66 281 3.0 4.0 0.00 0.00 0.00 45 1018.2
20200606222048 66 268 2.0 4.0 0.00 0.00 0.00 43 1018.1
20200606221549 66 271 0.0 2.0 0.00 0.00 0.00 44 1018.2
20200606221043 66 271 0.0 3.0 0.00 0.00 0.00 45 1018.3
20200606220541 66 271 0.0 3.0 0.00 0.00 0.00 44 1018.2
20200606220116 66 293 0.0 3.0 0.00 0.00 0.00 46 1018.3
20200606215541 66 293 2.0 7.0 0.00 0.00 0.00 43 1018.0
20200606215038 66 284 3.0 8.0 0.00 0.00 0.00 45 1018.1
20200606214659 66 263 1.0 8.0 0.00 0.00 0.00 47 1017.9
20200606214038 66 289 1.0 7.0 0.00 0.00 0.00 47 1017.8
20200606213136 66 286 3.0 7.0 0.00 0.00 0.00 45 1017.8
20200606212537 66 268 4.0 7.0 0.00 0.00 0.00 46 1017.7
20200606212037 66 271 1.0 8.0 0.00 0.00 0.00 44 1017.6
20200606211621 66 265 4.0 8.0 0.00 0.00 0.00 45 1017.6
20200606211037 66 261 2.0 7.0 0.00 0.00 0.00 47 1017.6
20200606210537 66 288 4.0 7.0 0.00 0.00 0.00 45 1017.5
20200606210200 67 288 4.0 7.0 0.00 0.00 0.00 41 1017.8
20200606205036 68 229 1.0 4.0 0.00 0.00 0.00 40 1017.9
20200606204717 68 31 1.0 4.0 0.00 0.00 0.00 40 1018.1
20200606204035 67 252 1.0 3.0 0.00 0.00 0.00 40 1018.2
20200606203111 67 242 1.0 3.0 0.00 0.00 0.00 42 1018.1
20200606202535 67 234 0.0 3.0 0.00 0.01 0.00 41 1018.4
20200606202039 67 234 0.0 4.0 0.00 0.01 0.00 43 1018.5
20200606201613 67 259 1.0 4.0 0.00 0.01 0.00 43 1018.5
20200606201034 67 235 1.0 3.0 0.00 0.01 0.00 40 1018.5
20200606200534 67 230 1.0 2.0 0.00 0.01 0.00 43 1018.5
20200606200106 67 219 0.0 2.0 0.00 0.01 0.00 42 1018.6
20200606195534 67 219 1.0 3.0 0.00 0.01 0.00 43 1018.6
20200606195032 66 254 1.0 5.0 0.00 0.01 0.00 46 1018.5
20200606194552 66 240 2.0 6.0 0.00 0.01 0.00 43 1018.5
20200606194050 66 254 1.0 3.0 0.00 0.01 0.00 48 1018.4
20200606193104 66 223 1.0 3.0 0.00 0.01 0.00 45 1018.4
20200606192531 66 228 0.0 3.0 0.00 0.01 0.00 45 1018.3
20200606192036 66 235 1.0 3.0 0.00 0.01 0.00 45 1018.3
20200606191555 65 252 0.0 3.0 0.00 0.01 0.00 45 1018.3
20200606191030 65 253 0.0 3.0 0.00 0.01 0.00 45 1018.4
20200606190529 65 280 1.0 3.0 0.00 0.01 0.00 46 1018.4
20200606190031 65 280 1.0 3.0 0.00 0.01 0.00 45 1018.5
20200606185529 65 279 2.0 4.0 0.00 0.01 0.00 44 1018.5
20200606185036 65 65 0.0 4.0 0.00 0.01 0.00 46 1018.3
20200606184638 64 220 1.0 4.0 0.00 0.01 0.00 47 1018.4
20200606184026 64 261 1.0 4.0 0.00 0.01 0.00 47 1018.4
20200606183031 64 234 2.0 4.0 0.00 0.01 0.00 47 1018.5
20200606182521 64 226 1.0 3.0 0.00 0.01 0.00 50 1018.5
20200606182036 64 238 1.0 3.0 0.00 0.01 0.00 49 1018.6
20200606181542 64 238 0.0 4.0 0.00 0.01 0.00 48 1018.8
20200606181021 64 238 1.0 4.0 0.00 0.01 0.00 49 1018.7
20200606180521 64 250 1.0 4.0 0.00 0.01 0.00 49 1018.8
20200606180036 64 249 0.0 4.0 0.00 0.01 0.00 50 1018.7
20200606175520 64 250 1.0 3.0 0.00 0.01 0.00 47 1018.9
20200606175020 64 250 1.0 3.0 0.00 0.01 0.00 47 1018.9
20200606174545 65 269 2.0 4.0 0.00 0.01 0.00 51 1019.0
20200606174020 64 242 1.0 3.0 0.00 0.01 0.00 48 1019.1
20200606173104 64 184 0.0 3.0 0.00 0.01 0.00 49 1019.1
20200606172521 64 240 1.0 3.0 0.00 0.01 0.00 49 1019.2
20200606172021 64 219 1.0 3.0 0.00 0.01 0.00 50 1019.3
20200606171542 64 272 2.0 3.0 0.00 0.01 0.00 49 1019.3
20200606171019 64 154 1.0 4.0 0.00 0.01 0.00 52 1019.4
20200606170524 64 242 1.0 4.0 0.00 0.01 0.00 53 1019.3
20200606170021 64 234 1.0 4.0 0.00 0.01 0.00 49 1019.3
20200606165519 64 254 1.0 4.0 0.00 0.01 0.00 50 1019.2
20200606165017 64 205 1.0 4.0 0.00 0.01 0.00 50 1019.1
20200606164520 64 234 2.0 6.0 0.00 0.01 0.00 50 1019.2
20200606164018 64 237 1.0 6.0 0.00 0.01 0.00 49 1019.1
20200606163518 64 219 0.0 3.0 0.00 0.01 0.00 48 1019.2
20200606163057 64 219 0.0 4.0 0.00 0.01 0.00 51 1019.2
20200606162522 64 232 1.0 4.0 0.00 0.01 0.00 49 1019.2
20200606162020 64 240 0.0 3.0 0.00 0.01 0.00 51 1019.2
20200606161525 64 221 1.0 3.0 0.00 0.01 0.00 52 1019.2
20200606161014 63 264 1.0 3.0 0.00 0.01 0.00 51 1019.0
20200606160056 62 205 1.0 3.0 0.00 0.01 0.00 54 1018.9
20200606155514 62 94 1.0 4.0 0.00 0.01 0.00 53 1018.9
20200606155020 62 277 1.0 5.0 0.00 0.01 0.00 53 1018.8
20200606154519 62 207 1.0 3.0 0.00 0.01 0.00 55 1018.9
20200606154014 61 216 1.0 3.0 0.00 0.01 0.00 55 1018.9
20200606153514 61 71 0.0 3.0 0.00 0.01 0.00 52 1018.8
20200606153028 61 154 0.0 3.0 0.00 0.01 0.00 54 1018.7
20200606152525 61 62 0.0 4.0 0.00 0.01 0.00 53 1018.8
20200606152012 62 62 0.0 4.0 0.00 0.01 0.00 51 1018.7
20200606151607 62 76 1.0 4.0 0.00 0.01 0.00 52 1018.8
20200606151011 62 231 1.0 3.0 0.00 0.01 0.00 54 1018.8
20200606150012 61 214 1.0 3.0 0.00 0.01 0.00 54 1018.6
20200606145516 61 253 2.0 3.0 0.00 0.01 0.00 55 1018.6
20200606145021 61 250 0.0 3.0 0.00 0.01 0.00 54 1018.6
20200606144515 61 237 0.0 4.0 0.00 0.01 0.00 55 1018.5
20200606144012 61 242 2.0 4.0 0.00 0.01 0.00 54 1018.5
20200606143509 61 256 0.0 3.0 0.00 0.01 0.00 56 1018.7
20200606143018 61 351 0.0 3.0 0.00 0.01 0.00 54 1018.6
20200606142521 61 294 0.0 3.0 0.00 0.01 0.00 56 1018.6
20200606142009 61 166 0.0 3.0 0.00 0.01 0.00 57 1018.6
20200606141512 61 98 0.0 2.0 0.00 0.01 0.00 58 1018.5
20200606141004 60 98 0.0 2.0 0.00 0.01 0.00 57 1018.5
20200606140011 60 97 0.0 2.0 0.00 0.01 0.00 56 1018.4
20200606135505 60 93 0.0 2.0 0.00 0.01 0.00 58 1018.4
20200606135006 60 93 0.0 2.0 0.00 0.01 0.00 58 1018.3
20200606134525 60 93 0.0 2.0 0.00 0.01 0.00 58 1018.3
20200606134002 60 93 0.0 2.0 0.00 0.01 0.00 58 1018.3
20200606133501 59 93 0.0 2.0 0.00 0.01 0.00 59 1018.1
20200606133258 59 93 0.0 2.0 0.00 0.01 0.00 59 1018.1
20200606132608 59 93 1.0 3.0 0.00 0.03 0.00 60 1018.0
20200606132058 58 93 0.0 3.0 0.00 0.03 0.00 60 1017.9
20200606131626 58 93 0.0 2.0 0.00 0.03 0.00 60 1017.8
20200606131056 58 93 0.0 2.0 0.00 0.03 0.00 61 1017.9
20200606130149 57 96 0.0 2.0 0.00 0.03 0.00 64 1017.7
20200606125602 56 96 0.0 2.0 0.00 0.03 0.00 63 1017.6
20200606125055 56 96 0.0 2.0 0.00 0.03 0.00 64 1017.7
20200606124711 55 96 0.0 2.0 0.00 0.03 0.00 64 1017.7
20200606124103 55 96 0.0 2.0 0.00 0.03 0.00 64 1017.5
20200606123551 55 96 0.0 2.0 0.00 0.03 0.00 65 1017.4
20200606123233 55 96 0.0 1.0 0.00 0.03 0.00 66 1017.3
20200606122557 55 96 0.0 1.0 0.00 0.03 0.00 66 1017.2
20200606122118 54 96 0.0 2.0 0.00 0.03 0.00 66 1017.1
20200606121651 54 96 0.0 1.0 0.00 0.03 0.00 65 1017.2
20200606121054 54 96 0.0 2.0 0.00 0.03 0.00 65 1017.1
20200606120145 54 96 0.0 2.0 0.00 0.03 0.00 65 1017.1
20200606115620 54 84 0.0 2.0 0.00 0.03 0.00 64 1017.1
20200606115052 53 71 0.0 2.0 0.00 0.03 0.00 65 1017.2
20200606114618 53 55 0.0 2.0 0.00 0.03 0.00 65 1017.0
20200606114045 53 55 0.0 2.0 0.00 0.03 0.00 66 1016.9
20200606113545 53 50 0.0 1.0 0.00 0.03 0.00 67 1016.7
20200606113245 53 50 0.0 2.0 0.00 0.03 0.00 67 1016.6
20200606112544 52 50 0.0 2.0 0.00 0.08 0.00 67 1016.6
20200606112043 52 50 0.0 2.0 0.00 0.08 0.00 67 1016.6
20200606111625 52 50 0.0 1.0 0.00 0.08 0.00 67 1016.6
20200606111045 52 50 0.0 2.0 0.00 0.08 0.00 68 1016.5
20200606110139 52 44 0.0 2.0 0.00 0.08 0.00 68 1016.4
20200606105536 52 36 0.0 1.0 0.00 0.08 0.00 67 1016.4
20200606105032 51 36 0.0 2.0 0.00 0.08 0.00 67 1016.3
20200606104652 51 36 0.0 2.0 0.00 0.08 0.00 67 1016.1
20200606104051 51 36 0.0 2.0 0.00 0.08 0.00 67 1016.2
20200606103531 52 20 0.0 2.0 0.00 0.08 0.00 66 1016.1
20200606103135 51 20 0.0 2.0 0.00 0.08 0.00 66 1016.1
20200606102540 52 20 0.0 1.0 0.00 0.11 0.00 66 1016.1
20200606102034 52 20 0.0 1.0 0.00 0.11 0.00 66 1016.1
20200606101534 52 20 0.0 1.0 0.00 0.11 0.00 65 1016.0
20200606101030 52 20 0.0 1.0 0.00 0.11 0.00 65 1015.9
20200606100048 52 20 0.0 0.0 0.00 0.11 0.00 65 1015.7
20200606095538 52 20 0.0 0.0 0.00 0.11 0.00 65 1015.6
20200606095024 52 20 0.0 0.0 0.00 0.11 0.00 65 1015.4
20200606094542 52 20 0.0 1.0 0.00 0.11 0.00 65 1015.3